Flag for India Weather past 2 weeks in Mumbai, Maharashtra, India

Now
81 °F

Fog.


Feels Like: 88 °F
Forecast: 81 / 85 °F
Wind: 15 mph from Southwest

Location: Bombay / Santacruz

Current Time: Aug 1, 2014 at 7:43:22 PM

Latest Report: Aug 1, 2014 at 6:40 PM


Visibility: 2 mi

Pressure: 29.59 "Hg

Humidity: 94%

Dew point: 79 °F

Location of MumbaiLocation

Historic Weather in Mumbai — Graph

°F

Mumbai temperature yesterday

Maximum temperature yesterday: 81 °F (at 2:40 AM)
Minimum temperature yesterday: 77 °F (at 4:40 PM)
Average temperature yesterday: 79 °F

Past Weeks' High & Low Weather Summary

 TemperatureHumidityPressure
High88 °F (Jul 21, 11:40 AM)100% (Jul 17, 5:40 PM)29.80 "Hg (Jul 17, 5:40 PM)
Low77 °F (Jul 27, 2:40 PM)70% (Jul 26, 2:40 PM)29.53 "Hg (Jul 17, 5:40 PM)
Average83 °F89%29.65 "Hg
* Reported Jul 17 5:40 PM — Aug 1 5:40 PM, Mumbai, Weather by CustomWeather, © 2014

Note: Actual official high and low records may vary slightly from our data, if they occured in-between our weather recording intervals... More about our weather records

Advertising

Mumbai weather history for previous 24 hours

 ConditionsComfort  
Time TempWeatherWind HumidityBarometerVisibility
5:40 PM
Aug 1
82 °FLight rain. More clouds than sun.14 mph89%29.56 "Hg1 mi
4:40 PM82 °FBroken clouds.12 mph84%29.56 "Hg2 mi
3:40 PM86 °FDrizzle. Broken clouds.12 mph84%29.59 "Hg2 mi
2:40 PM88 °FBroken clouds.9 mph75%29.59 "Hg2 mi
12:40 PM84 °FBroken clouds.9 mph89%29.62 "Hg1 mi
10:40 AM84 °FBroken clouds.9 mph89%29.62 "Hg2 mi
8:40 AM81 °FBroken clouds.9 mph94%29.62 "Hg1 mi
7:40 AM82 °FBroken clouds.14 mph89%29.62 "Hg1 mi
6:40 AM81 °FPartly cloudy.15 mph94%29.59 "Hg2 mi
4:40 AM81 °FMostly cloudy.9 mph89%29.56 "Hg1 mi
3:40 AM79 °FSprinkles. Mostly cloudy.8 mph94%29.56 "Hg1 mi
2:40 AM79 °FDrizzle. Mostly cloudy.14 mph89%29.56 "Hg1 mi
1:40 AM79 °FDrizzle. Mostly cloudy.6 mph94%29.59 "Hg1 mi
12:40 AM81 °FLight rain. Mostly cloudy.6 mph89%29.59 "Hg2 mi
11:40 PM
Jul 31
79 °FFog.8 mph94%29.62 "Hg2 mi
9:40 PM79 °FMostly cloudy.6 mph94%29.59 "Hg1 mi
8:40 PM79 °FLight rain. Mostly cloudy.9 mph100%29.59 "Hg1 mi
7:40 PM77 °FRain. More clouds than sun.8 mph100%29.59 "Hg1 mi
Weather by CustomWeather, © 2014

See weather overviewHow to use our weather pages